Wind_Speed
18 18 18 17 16 15 16 17 18 18 20 20 20 19 20 20 20 21 21 22 22 23 23 23 23 23 22 22 23 23 23 23 22 22 23 23 23 23 23 24 26 26 27
16 16 16 15 15 15 16 17 17 18 19 19 19 19 18 18 19 19 20 21 21 22 22 22 22 22 22 21 22 22 23 22 22 21 22 22 22 22 22 22 24 25 26
15 14 14 13 14 14 15 16 17 17 17 18 17 17 18 17 17 17 18 20 20 21 21 22 21 22 21 21 22 22 23 22 22 22 21 21 21 21 22 22 23 24 24
14 14 13 14 14 14 14 14 14 15 16 16 17 17 17 17 17 17 18 20 20 20 21 21 22 22 22 22 22 23 23 23 23 23 22 21 21 22 22 22 24 24 24
13 13 13 13 14 14 14 13 13 14 15 15 16 15 15 16 16 16 18 19 19 20 21 22 22 22 22 22 23 23 23 23 23 23 23 23 22 22 22 23 23 23 23
12 11 12 13 13 13 13 13 13 14 15 14 14 14 15 15 16 17 18 18 19 20 21 21 21 21 22 22 22 22 22 23 23 23 24 24 23 23 23 23 23 23 24
10 10 11 11 11 11 11 11 12 13 13 13 13 14 15 16 16 17 18 18 19 20 21 21 22 22 22 22 22 22 23 23 24 24 25 25 25 24 24 24 23 24 25
10 10 11 10 10 10 9 10 11 12 13 14 14 15 16 16 17 18 18 19 19 20 21 22 22 22 23 23 23 23 24 24 25 25 26 25 25 25 25 25 25 25 25
9 9 10 9 9 8 9 10 11 12 13 13 14 15 16 17 18 18 19 19 19 20 21 21 22 23 23 23 23 24 24 25 25 26 26 26 26 26 25 25 25 25 25
7 7 8 8 8 8 9 9 10 11 12 13 13 15 16 17 17 18 19 19 20 20 21 21 22 23 23 24 24 25 25 25 25 26 25 25 25 25 25 25 24 23 24
6 6 6 6 7 8 8 9 10 11 12 13 14 15 16 17 18 19 19 19 19 20 20 21 22 23 23 24 25 26 26 25 25 25 25 25 25 24 24 24 24 23 23
5 5 5 6 6 7 9 10 11 12 12 13 14 16 17 17 18 19 19 20 21 21 22 22 23 24 25 26 26 26 26 25 25 25 25 25 24 23 23 22 22 22 22
3 4 5 6 6 7 9 9 10 11 12 14 15 16 17 18 18 19 20 21 22 22 22 23 24 25 25 26 26 26 25 25 25 25 24 24 23 23 23 22 22 23 23
3 4 5 5 7 8 9 9 10 11 13 14 15 16 16 17 18 19 19 21 22 22 23 23 24 25 26 26 26 26 26 26 25 25 24 23 23 23 23 23 22 22 23
4 4 5 6 8 8 9 10 11 12 13 14 15 16 17 17 18 19 21 22 22 23 24 25 25 26 27 27 27 27 26 26 26 25 24 23 23 23 23 23 23 23 24
4 5 6 7 8 8 9 10 11 12 13 14 16 17 17 17 19 20 22 23 24 25 26 26 27 27 27 27 27 26 26 26 26 26 24 24 24 23 23 24 24 23 23
4 5 6 7 8 9 10 10 11 12 14 15 17 18 19 19 21 22 23 25 25 26 27 27 28 28 28 27 27 27 27 26 26 26 25 25 25 25 24 25 24 24 23
5 6 7 8 8 9 10 10 11 12 14 16 17 18 20 21 23 24 25 25 26 27 27 28 28 28 27 27 27 27 27 26 26 26 25 25 25 25 25 25 25 24 23
6 7 7 8 8 9 10 11 12 14 16 17 18 20 21 22 24 25 26 26 26 27 28 28 29 28 28 28 29 28 28 27 27 26 25 25 25 26 26 25 24 23 23
6 7 7 8 9 10 10 12 14 15 17 18 19 20 22 23 24 25 26 27 28 28 29 29 29 29 29 29 29 29 29 28 27 27 26 25 25 25 25 24 24 24 24
6 7 7 8 9 10 11 13 15 16 18 19 20 21 22 23 25 26 27 28 29 29 29 29 29 30 30 30 30 30 30 29 28 27 27 26 26 25 24 23 23 24 23
6 6 7 8 9 10 12 14 16 18 19 20 21 22 23 23 25 27 28 29 29 29 29 29 30 30 31 31 30 30 30 30 29 28 27 26 25 25 25 24 24 24 24
5 6 7 8 10 11 13 15 17 19 20 21 21 22 23 24 26 28 28 29 30 29 30 30 31 31 31 30 30 31 31 31 30 29 27 26 26 25 25 24 24 24 24
5 6 8 9 11 12 14 16 17 19 20 21 22 23 24 25 27 28 28 29 29 30 30 30 31 31 31 31 31 32 32 31 31 30 29 28 27 26 25 24 24 23 23
6 7 9 10 11 13 14 16 18 19 20 21 23 23 24 26 28 28 29 29 30 31 31 31 31 32 33 33 33 33 33 32 32 31 30 29 27 26 25 24 23 23 23
6 8 9 10 11 13 15 16 18 19 20 22 23 23 25 27 28 29 30 30 31 32 32 31 32 33 34 34 34 34 34 33 32 32 31 29 27 26 25 24 24 23 23
Wind_Direction
277 276 278 281 281 282 282 284 287 290 289 292 294 294 294 295 295 297 298 298 299 301 304 307 307 305 306 305 304 302 301 299 297 296 296 296 292 288 284 282 279 275 273
276 279 279 280 281 284 288 290 290 288 289 292 293 294 298 299 299 299 299 300 300 302 304 307 307 306 306 305 305 304 303 301 300 299 298 296 294 292 288 285 283 278 275
275 277 277 280 285 288 290 291 292 292 293 295 292 297 298 300 302 302 303 304 304 304 306 306 306 307 307 307 306 305 303 301 300 299 297 295 294 294 292 287 284 280 277
273 275 279 284 289 290 290 291 294 298 296 296 297 298 299 303 305 303 305 306 307 309 309 310 308 307 309 309 307 305 303 302 300 299 297 295 294 293 292 289 285 282 280
271 274 277 283 286 287 288 294 299 301 301 301 303 303 303 306 308 308 310 310 310 312 312 311 310 309 311 311 309 306 303 302 300 297 297 298 295 293 291 290 288 285 283
273 275 280 283 283 285 291 296 299 302 305 306 309 310 311 311 311 311 312 311 312 313 313 313 313 313 313 312 311 309 306 305 302 301 301 299 297 294 292 291 290 287 284
276 278 283 284 286 291 295 298 303 307 308 311 314 315 314 314 313 313 313 314 313 313 315 315 314 314 314 314 313 311 309 308 306 303 302 301 297 294 292 289 289 289 286
275 280 283 283 289 292 299 309 312 312 311 310 313 316 318 320 319 318 318 316 314 314 314 315 315 315 315 314 313 310 308 307 306 304 301 301 299 296 291 289 289 290 290
274 280 285 288 290 296 306 314 315 314 313 313 314 316 318 319 320 320 320 319 318 317 317 317 317 317 317 314 313 312 310 309 307 305 303 300 299 298 295 292 291 289 290
283 285 288 289 292 299 309 313 316 317 316 317 318 321 322 322 322 323 323 322 321 319 318 318 317 318 319 316 315 314 313 312 309 308 306 303 302 301 297 293 292 291 290
298 297 295 291 294 303 309 314 316 320 321 322 324 324 325 326 325 323 322 323 323 321 319 320 319 319 318 317 316 314 313 312 312 310 309 308 305 302 299 295 293 292 292
305 307 307 308 311 314 317 317 318 322 324 325 327 326 326 328 327 327 326 325 325 325 323 322 321 320 321 320 319 317 316 315 314 312 311 310 306 304 302 298 295 294 294
323 323 321 321 320 321 322 323 322 323 326 327 329 329 328 328 328 329 329 329 328 327 326 325 324 321 321 323 323 322 320 318 316 314 313 313 310 305 302 300 297 293 294
340 335 331 329 326 326 327 329 329 328 328 329 330 330 330 330 331 332 333 332 332 331 330 328 326 325 325 325 325 323 321 320 318 317 315 313 312 309 303 301 299 296 294
341 337 335 335 334 333 333 333 332 332 333 334 336 336 335 336 337 336 337 336 336 335 334 331 330 329 329 328 328 326 323 322 321 318 315 313 312 310 306 303 299 296 295
339 342 342 340 343 344 342 339 339 338 338 338 339 341 340 339 339 339 338 339 339 338 336 334 333 333 332 330 328 327 325 324 321 320 315 312 312 311 309 307 302 299 297
351 350 351 350 349 347 345 343 343 342 342 341 340 340 341 341 341 341 339 338 337 336 335 335 334 332 331 330 329 328 327 326 324 321 317 313 311 310 308 307 305 301 297
356 355 356 355 351 350 350 350 347 346 344 343 343 343 342 341 340 339 339 338 337 335 334 334 335 335 334 333 332 331 329 328 326 323 319 316 314 313 311 310 307 304 300
358 356 357 357 355 355 354 353 350 348 347 345 345 343 342 341 340 341 341 340 339 338 338 337 337 337 336 335 334 332 330 329 327 325 322 320 318 316 315 313 310 307 304
350 352 353 354 353 354 356 355 353 351 349 347 345 344 344 344 345 345 345 345 344 343 342 341 339 338 337 336 335 334 333 330 328 326 325 323 320 318 317 315 313 309 306
343 346 348 350 351 353 354 353 351 350 350 349 347 347 346 346 347 348 348 347 345 344 343 342 340 339 338 337 337 336 335 334 332 329 326 325 322 319 318 316 314 312 310
335 340 344 347 348 350 350 351 352 350 350 349 349 348 347 347 348 348 348 347 346 345 345 344 343 341 340 339 339 339 338 337 336 333 330 327 325 322 319 317 315 312 311
330 339 343 344 345 347 349 350 351 351 351 351 351 350 349 350 350 349 349 348 348 347 347 346 345 344 343 342 341 341 341 341 340 337 334 331 327 325 323 320 318 316 314
327 337 342 343 345 346 348 350 350 350 350 350 350 349 349 350 351 351 350 350 349 348 347 347 346 347 346 345 344 343 342 342 341 339 336 333 330 328 327 325 322 320 317
316 328 335 339 341 343 345 347 348 348 349 349 349 350 351 352 352 352 351 351 350 349 348 348 348 348 348 347 346 344 343 342 341 340 339 336 334 332 330 329 326 324 319
312 321 329 333 336 338 341 344 346 347 348 349 350 351 351 351 352 351 351 350 349 348 348 348 348 349 349 348 347 345 343 342 342 341 340 339 337 335 333 332 331 328 324
Height
5785 5784 5783 5782 5781 5780 5779 5778 5777 5775 5774 5773 5771 5769 5767 5765 5763 5760 5758 5755 5753 5750 5747 5744 5740 5737 5733 5730 5727 5724 5721 5719 5716 5714 5711 5708 5705 5704 5702 5701 5699 5698 5697
5780 5779 5778 5777 5776 5775 5774 5773 5772 5771 5769 5767 5766 5764 5762 5760 5757 5755 5752 5750 5747 5745 5742 5738 5735 5731 5728 5725 5721 5718 5715 5713 5710 5708 5705 5702 5700 5698 5696 5694 5692 5691 5690
5776 5775 5774 5773 5772 5771 5770 5769 5767 5766 5764 5762 5761 5759 5757 5755 5752 5750 5748 5745 5742 5739 5736 5733 5729 5726 5723 5719 5716 5713 5710 5707 5704 5702 5700 5697 5694 5692 5690 5688 5686 5684 5683
5772 5771 5771 5770 5769 5767 5766 5765 5763 5762 5760 5758 5757 5754 5752 5750 5748 5746 5743 5740 5737 5734 5731 5728 5724 5721 5718 5714 5711 5707 5704 5701 5699 5696 5694 5692 5689 5686 5684 5682 5680 5678 5676
5768 5768 5767 5766 5765 5764 5763 5761 5760 5759 5756 5754 5752 5750 5748 5745 5744 5741 5739 5736 5733 5729 5726 5723 5719 5716 5712 5709 5705 5702 5699 5696 5693 5690 5688 5686 5683 5680 5678 5676 5673 5671 5669
5764 5764 5763 5763 5762 5760 5759 5758 5757 5755 5753 5751 5749 5746 5744 5742 5739 5737 5734 5731 5728 5725 5721 5718 5714 5711 5708 5704 5700 5697 5694 5690 5687 5685 5682 5679 5677 5675 5672 5669 5667 5664 5663
5762 5761 5760 5759 5758 5758 5756 5755 5754 5752 5750 5748 5745 5743 5740 5738 5736 5733 5730 5726 5723 5720 5716 5713 5709 5706 5702 5699 5696 5692 5688 5685 5682 5679 5676 5673 5670 5668 5665 5663 5660 5658 5656
5759 5758 5757 5757 5756 5755 5753 5752 5751 5749 5747 5745 5743 5740 5737 5735 5732 5729 5725 5722 5718 5715 5712 5708 5704 5701 5697 5694 5690 5686 5683 5679 5676 5672 5670 5666 5663 5660 5657 5655 5653 5651 5648
5756 5756 5755 5754 5753 5752 5751 5749 5748 5746 5744 5742 5740 5737 5734 5731 5728 5725 5721 5717 5714 5710 5707 5703 5700 5696 5692 5688 5684 5681 5677 5673 5669 5665 5662 5659 5655 5652 5649 5647 5645 5642 5640
5754 5753 5753 5752 5751 5750 5749 5747 5745 5744 5741 5739 5737 5734 5731 5728 5725 5721 5718 5714 5710 5707 5703 5699 5695 5691 5687 5682 5678 5674 5670 5666 5662 5658 5655 5651 5648 5645 5642 5639 5636 5634 5632
5752 5751 5751 5750 5749 5748 5747 5745 5743 5741 5739 5736 5734 5731 5728 5725 5721 5718 5714 5710 5706 5702 5698 5695 5690 5686 5682 5677 5673 5668 5664 5660 5656 5652 5648 5644 5641 5638 5634 5632 5629 5626 5625
5750 5749 5749 5748 5747 5746 5745 5743 5741 5739 5736 5734 5731 5728 5725 5721 5718 5714 5710 5706 5702 5698 5694 5690 5686 5681 5676 5672 5667 5662 5658 5653 5649 5645 5641 5637 5634 5630 5627 5624 5622 5620 5618
5749 5748 5747 5746 5745 5744 5743 5741 5739 5737 5734 5731 5728 5725 5722 5718 5714 5710 5707 5703 5698 5694 5690 5685 5680 5676 5671 5666 5661 5656 5652 5647 5643 5639 5634 5631 5627 5623 5620 5618 5615 5613 5611
5748 5747 5746 5745 5744 5742 5741 5739 5737 5734 5731 5728 5725 5722 5719 5715 5711 5707 5703 5699 5694 5690 5685 5680 5675 5670 5665 5660 5655 5650 5646 5641 5636 5632 5628 5624 5621 5617 5614 5611 5609 5606 5604
5747 5746 5745 5744 5742 5741 5739 5737 5734 5732 5729 5726 5723 5720 5716 5712 5708 5704 5700 5695 5690 5685 5680 5675 5670 5665 5660 5654 5650 5644 5640 5635 5631 5626 5622 5618 5615 5611 5608 5605 5602 5599 5597
5747 5745 5744 5743 5741 5739 5737 5735 5733 5730 5727 5724 5721 5717 5714 5710 5705 5701 5696 5692 5687 5681 5676 5671 5665 5660 5654 5649 5644 5639 5634 5630 5625 5620 5616 5612 5608 5605 5601 5598 5595 5592 5589
5746 5745 5743 5742 5740 5738 5736 5733 5731 5729 5726 5723 5719 5715 5712 5707 5703 5698 5693 5688 5683 5678 5672 5666 5661 5655 5649 5644 5639 5634 5629 5624 5619 5614 5610 5606 5602 5598 5594 5591 5588 5585 5582
5746 5744 5743 5741 5739 5737 5735 5732 5730 5727 5724 5721 5717 5713 5709 5705 5700 5695 5690 5685 5679 5674 5668 5662 5656 5650 5645 5639 5634 5628 5623 5618 5613 5608 5603 5599 5595 5591 5587 5584 5580 5577 5574
5745 5744 5742 5740 5738 5736 5734 5732 5729 5726 5722 5719 5715 5711 5707 5702 5697 5692 5687 5681 5675 5670 5664 5658 5652 5646 5640 5635 5629 5623 5618 5613 5607 5602 5597 5593 5588 5584 5580 5577 5573 5570 5567
5745 5743 5742 5740 5738 5736 5733 5731 5728 5725 5721 5717 5713 5709 5704 5700 5695 5689 5684 5678 5672 5666 5660 5655 5648 5642 5636 5630 5624 5618 5613 5607 5601 5596 5591 5586 5582 5578 5574 5570 5566 5563 5560
5744 5743 5741 5739 5737 5735 5733 5730 5727 5723 5719 5715 5711 5706 5702 5697 5692 5686 5681 5675 5669 5663 5657 5651 5645 5638 5632 5626 5620 5614 5607 5601 5596 5590 5585 5580 5576 5571 5567 5563 5560 5556 5553
5743 5742 5740 5739 5737 5734 5732 5729 5725 5722 5718 5713 5709 5704 5700 5695 5690 5684 5678 5672 5666 5660 5654 5647 5641 5635 5628 5622 5616 5610 5603 5597 5591 5585 5579 5574 5569 5565 5561 5557 5553 5549 5546
5742 5741 5739 5738 5736 5733 5730 5727 5724 5720 5716 5712 5707 5703 5698 5693 5687 5682 5676 5670 5663 5657 5651 5644 5638 5631 5625 5618 5612 5605 5599 5592 5586 5580 5574 5569 5564 5559 5554 5550 5546 5543 5539
5741 5740 5738 5737 5735 5732 5729 5726 5723 5719 5715 5710 5706 5701 5696 5691 5685 5679 5673 5667 5661 5655 5648 5642 5635 5628 5621 5615 5608 5601 5594 5588 5581 5575 5569 5563 5558 5553 5548 5544 5540 5536 5533
5740 5739 5737 5735 5733 5730 5728 5725 5721 5717 5713 5709 5704 5699 5694 5689 5683 5677 5671 5665 5659 5652 5646 5639 5632 5625 5618 5611 5604 5597 5590 5583 5577 5570 5564 5558 5552 5547 5543 5538 5534 5530 5526
5738 5737 5735 5733 5731 5729 5726 5723 5719 5716 5712 5707 5703 5698 5693 5687 5681 5675 5669 5663 5657 5650 5643 5636 5629 5622 5615 5608 5601 5594 5586 5579 5573 5566 5559 5553 5547 5542 5537 5533 5528 5524 5520